Location: ???????
(55.9142°N, 37.8256°E)
Time: 10:54:38
(UTC+00:00)

Cosmos 1470 Rocket - Pass Details

Date: 14 April 2024
Orbit: 601 x 629 km, 82.5° (Epoch: 18 May)

Event Time Altitude Azimuth Distance (km) Brightness Sun altitude
Rises 01:14:35 0° 348° (NNW) 2,889 7.3 -9.7°
Reaches altitude 10° 01:16:49 10° 350° (N) 1,983 6.5 -9.5°
Maximum altitude 01:21:12 78° 77° (ENE) 636 3.7 -8.9°
Drops below altitude 10° 01:25:37 10° 164° (SSE) 1,985 6.0 -8.4°
Sets 01:27:51 0° 166° (SSE) 2,891 6.8 -8.1°
